Location: Cheching
(60.0667°N, 164.2167°W)
Time: 11:26:28
(UTC+00:00)

FENGYUN 1C DEB - Pass Details

Date: 01 October 2021
Orbit: 727 x 819 km, 99.4° (Epoch: 17 October)

Event Time Altitude Azimuth Distance (km) Brightness Sun altitude
Exits shadow 10:52:21 19° 62° (ENE) 1,711 ? -33.3°
Maximum altitude 10:53:32 21° 43° (NE) 1,639 ? -33.3°
Drops below altitude 10° 10:57:13 10° 355° (N) 2,293 ? -33.3°
Sets 11:00:01 0° 340° (NNW) 3,238 ? -33.2°
